EHI
0 0 0 0 0 0 0 0 0 0 1 4 9 15 16 14 12 12 13 14 15 15 13 9 6 5 5 6 7 6 4 3 2 1 0 1 3 3 2 1 0 0 0 0
0 0 0 0 0 0 0 0 0 1 3 6 10 16 17 14 11 11 13 12 12 12 11 7 5 4 5 4 5 5 3 2 1 0 0 1 2 2 1 0 0 0 0 0
0 0 0 0 0 0 0 0 1 2 4 6 11 17 18 12 8 9 11 9 8 8 8 5 3 3 3 3 3 3 2 1 0 0 0 1 1 1 0 0 0 0 0 0
0 0 0 0 0 0 0 0 2 3 5 7 10 14 14 9 6 7 8 8 8 7 6 4 2 1 2 3 3 2 1 0 0 0 0 0 0 0 0 0 0 0 0 0
0 0 0 0 0 0 0 0 1 4 6 7 8 9 8 7 6 6 7 9 10 8 6 4 2 0 1 2 3 2 1 0 0 0 0 0 0 0 0 0 0 0 0 0
0 0 0 0 0 0 0 0 1 3 5 6 6 5 7 8 9 8 9 10 10 8 7 6 4 2 1 2 2 1 0 0 0 0 0 0 0 0 0 0 0 0 0 0
0 0 0 0 0 1 1 1 3 4 5 5 5 6 7 9 10 9 8 8 8 9 9 8 5 2 1 1 1 0 0 0 0 0 0 0 0 0 0 0 0 0 0 0
0 0 0 0 0 1 2 3 5 5 6 7 8 7 6 6 7 6 6 5 6 7 8 6 3 1 0 0 0 0 0 0 0 0 0 0 0 0 0 0 0 0 0 0
0 0 1 1 1 2 2 3 5 6 6 7 7 5 3 4 4 4 3 2 3 4 4 3 1 0 0 0 0 0 0 0 0 0 0 0 0 0 0 0 0 0 0 0
0 0 1 1 2 2 1 2 4 5 4 4 3 2 3 3 3 2 1 1 2 2 2 1 0 0 0 0 0 0 0 0 0 0 0 0 0 0 0 0 0 0 0 0
0 0 0 1 1 1 1 1 2 2 1 1 1 1 2 3 2 1 0 0 1 1 1 0 0 0 0 0 0 1 1 0 0 0 0 1 1 0 0 0 0 0 0 0
0 0 0 0 0 0 0 1 1 1 0 0 1 2 2 1 1 0 0 0 0 0 0 0 0 0 0 0 1 2 2 1 0 0 0 1 1 0 0 0 0 0 0 0
0 0 0 0 0 0 0 0 0 0 0 1 2 3 2 1 0 0 0 0 0 0 0 0 0 0 0 0 1 3 2 1 0 0 0 1 1 0 0 0 0 0 0 0
0 0 0 0 0 0 0 0 0 0 0 1 2 3 2 1 0 0 0 0 0 0 0 0 0 0 0 1 2 3 2 1 0 0 0 0 0 0 0 0 0 0 0 0
0 0 0 0 0 0 0 0 0 0 0 1 2 3 2 1 0 0 0 0 0 0 0 0 0 0 0 1 2 2 2 1 0 0 0 0 0 0 0 0 0 0 0 0
0 0 0 0 0 0 0 0 0 0 0 1 1 1 1 0 0 0 0 0 0 0 0 0 0 0 0 0 1 1 1 0 0 0 0 0 0 0 0 0 0 0 0 0
0 0 0 0 0 0 0 0 0 0 0 0 0 0 0 0 0 0 0 0 0 0 0 0 0 0 0 0 0 0 0 0 0 0 0 0 0 0 0 0 0 0 0 0
0 0 0 0 0 0 0 0 0 0 0 0 0 0 0 0 0 0 0 0 0 0 0 0 0 0 0 0 0 0 0 0 0 0 0 0 0 0 0 0 0 0 0 0
0 0 0 0 0 0 0 0 0 0 0 0 0 0 0 0 0 0 0 0 0 0 0 0 0 0 0 0 0 0 0 0 0 0 0 0 0 0 0 0 0 0 0 0
0 0 0 0 0 0 0 0 0 0 0 0 0 0 0 0 0 0 0 0 0 0 0 0 0 0 0 0 0 0 0 0 0 0 0 0 0 0 0 0 0 0 0 0
0 0 0 0 0 0 0 0 0 0 0 0 0 0 0 0 0 0 0 0 0 0 0 0 0 0 0 0 0 0 0 0 0 0 0 0 0 0 0 0 0 0 0 0
0 0 0 0 0 0 0 0 0 0 0 0 0 0 0 0 0 0 0 0 0 0 0 0 0 0 0 0 0 0 0 0 0 0 0 0 0 0 0 0 0 0 0 0
0 0 0 0 0 0 0 0 0 0 0 0 0 0 0 0 0 0 0 0 0 0 0 0 0 0 0 0 0 0 0 0 0 0 0 0 0 0 0 0 0 0 0 0
0 1 1 0 0 0 0 1 0 0 0 0 0 0 0 0 0 0 0 0 0 0 0 0 0 0 0 0 0 0 0 0 0 0 0 0 0 0 0 0 0 0 0 0
1 3 4 2 1 1 1 2 1 0 0 0 0 0 0 0 0 0 0 0 0 0 0 0 0 0 0 0 0 0 0 0 0 0 0 0 0 0 0 0 0 0 0 0
2 4 5 4 2 1 1 1 0 0 0 0 0 0 0 0 0 0 0 0 0 0 0 0 0 0 0 0 0 0 0 0 0 0 0 0 0 0 0 0 0 0 0 0
1 3 5 4 2 1 0 0 0 0 0 0 0 0 0 0 0 0 0 0 0 0 0 0 0 0 0 0 0 0 0 0 0 0 0 0 0 0 0 0 0 0 0 0
Wind_Speed
10 10 10 9 10 8 8 8 8 5 2 3 5 5 5 5 5 6 5 5 6 5 5 4 2 2 1 0 1 1 1 1 2 1 1 1 1 1 1 2 2 2 2 2
11 11 11 10 9 8 7 6 5 3 1 5 5 5 5 5 4 5 5 5 5 5 5 4 2 1 1 1 1 1 1 1 1 1 0 0 0 1 1 2 2 2 2 2
10 11 12 10 7 7 6 4 4 3 2 5 5 6 5 5 5 5 4 4 4 5 4 3 2 1 1 1 1 1 1 1 1 0 0 1 1 2 2 2 1 2 2 2
9 10 11 5 5 4 2 1 1 2 4 4 5 6 5 4 4 5 5 4 4 3 4 3 2 2 2 1 2 2 1 1 1 0 0 1 1 1 1 2 2 2 2 2
8 9 8 5 5 4 2 1 1 3 5 5 7 7 6 5 5 6 5 5 4 3 4 3 2 2 2 2 2 1 1 0 1 1 1 1 1 1 1 1 2 2 2 1
8 9 8 4 2 3 1 2 2 4 5 6 7 4 4 6 6 6 6 5 4 3 4 3 2 2 1 1 2 1 1 1 1 1 1 1 1 1 1 2 2 2 2 1
10 9 6 2 2 3 3 2 3 4 5 4 3 5 8 9 7 7 6 5 4 4 4 3 2 2 1 1 1 1 1 1 0 1 1 1 1 1 1 2 3 2 2 2
7 7 4 1 1 1 3 4 3 4 6 8 10 11 10 9 8 7 6 5 4 3 3 3 2 2 2 1 2 2 1 0 0 0 2 1 1 1 2 2 3 3 2 2
2 1 1 2 3 4 4 4 4 4 8 11 11 10 10 9 8 6 6 5 4 3 4 3 2 2 2 2 2 2 1 0 1 1 1 1 2 2 2 2 2 2 1 1
3 3 3 2 4 4 4 4 6 7 8 10 10 10 10 9 7 6 6 5 4 3 3 3 2 1 2 2 2 1 1 1 1 1 2 2 2 2 2 2 2 3 2 2
4 3 2 2 3 3 5 6 8 8 8 9 10 10 10 8 7 6 6 5 4 3 3 3 2 2 2 2 2 1 1 1 2 2 2 2 1 2 2 1 2 2 3 3
4 3 2 3 4 4 6 7 8 7 7 8 9 9 9 8 7 6 5 5 4 4 3 3 2 2 2 2 2 2 1 2 2 2 2 2 2 1 1 3 3 4 4 4
3 4 3 4 5 5 6 8 8 7 8 9 9 9 9 8 7 6 5 5 4 4 3 3 3 2 2 2 2 2 2 2 2 2 2 2 2 2 2 3 5 6 7 8
3 4 5 6 6 6 7 8 8 8 9 9 8 9 8 8 7 6 5 5 5 4 4 3 3 2 2 2 2 2 2 2 3 3 3 3 3 3 3 3 3 3 6 10
6 6 7 7 8 8 8 8 9 9 9 9 9 8 8 7 7 6 5 5 4 4 3 3 3 2 3 3 2 2 3 2 2 3 4 4 4 4 4 4 3 3 2 4
7 7 9 9 9 9 9 9 8 9 9 9 9 8 8 7 6 5 5 5 5 4 4 3 3 3 3 3 3 3 3 4 5 4 5 4 4 4 3 3 3 3 3 4
9 10 10 11 10 10 9 8 8 9 9 10 9 9 8 8 7 6 5 5 5 4 3 3 3 3 3 3 3 4 4 4 6 6 5 4 4 4 4 4 4 4 4 4
9 10 10 11 10 9 9 8 8 9 9 9 10 9 8 7 6 6 5 5 5 4 4 4 4 4 4 3 3 4 4 4 4 5 4 3 4 4 5 4 5 6 5 4
10 10 11 11 11 10 9 8 9 9 9 9 9 8 7 7 6 6 5 5 5 5 4 4 3 3 3 3 3 4 5 5 5 4 3 3 4 5 4 5 5 5 5 4
11 12 13 12 12 11 9 8 9 9 9 9 8 8 7 7 6 6 5 5 4 3 4 4 5 4 5 4 5 6 6 5 5 4 3 3 5 5 5 6 6 5 5 5
12 13 14 13 12 11 10 9 9 9 9 9 8 8 7 6 6 6 5 4 4 4 4 5 5 5 5 3 5 7 6 5 4 4 4 4 5 5 5 5 6 5 5 5
10 12 13 12 11 10 9 8 9 9 9 8 8 7 6 6 6 5 5 3 4 5 4 5 4 4 3 4 6 6 6 5 4 4 4 5 5 5 5 5 5 5 5 4
9 10 11 12 11 10 9 9 9 9 9 8 8 7 6 5 4 4 4 4 4 6 5 4 4 5 5 6 7 7 5 5 4 4 5 5 4 4 4 5 4 4 4 4
8 9 10 10 10 9 9 9 9 7 8 7 7 7 6 5 4 4 3 6 7 7 5 4 7 7 7 6 6 5 4 4 4 5 5 4 4 4 4 4 4 4 4 5
9 9 10 10 9 8 9 9 9 9 9 6 7 8 6 5 4 4 4 6 8 8 5 6 10 10 8 6 5 5 4 3 4 5 5 5 5 5 4 3 4 4 4 4
7 7 8 7 6 6 8 8 8 8 7 7 6 6 5 4 4 4 3 6 8 7 5 4 6 8 7 6 5 4 4 3 3 4 5 5 5 5 4 5 6 4 4 4
8 7 7 8 8 8 7 8 7 7 7 6 6 6 6 5 4 4 4 4 5 5 5 5 5 5 5 5 5 4 4 3 3 3 4 3 3 4 4 5 4 4 4 5
Wind_Direction
284 281 281 283 283 278 272 280 285 285 260 164 151 145 145 139 135 141 145 141 137 136 134 142 143 152 156 116 81 87 100 104 111 118 110 82 6 334 341 346 344 341 327 322
288 288 284 284 286 284 278 277 277 273 73 113 115 129 134 133 146 141 145 144 141 141 142 149 153 159 158 115 108 128 127 106 93 86 49 354 334 322 347 5 358 345 343 349
282 284 284 276 281 281 280 289 299 305 123 135 136 138 141 152 152 145 148 143 139 144 144 148 150 152 160 111 131 140 136 129 138 127 28 18 5 14 9 4 344 331 329 347
278 284 275 287 301 301 310 348 21 134 142 141 128 128 124 127 139 136 139 136 129 126 131 131 143 158 155 144 137 144 152 166 188 105 29 55 35 15 348 335 325 314 308 305
270 271 270 267 274 293 308 290 183 151 139 134 132 136 129 119 119 124 123 115 114 120 127 135 145 153 146 130 133 141 155 131 64 20 29 27 18 347 334 313 303 293 283 278
259 271 272 278 297 330 292 217 151 153 159 158 164 183 134 121 115 113 109 109 116 124 124 125 126 119 127 148 143 136 105 69 65 23 4 322 303 303 312 299 288 289 302 307
249 258 262 273 299 287 268 125 110 150 151 149 131 93 114 120 115 113 113 118 124 123 121 121 126 140 172 174 137 119 115 104 76 46 318 274 280 297 287 290 299 295 286 274
252 254 248 344 303 351 101 108 107 124 129 121 109 113 121 123 121 123 125 126 124 118 116 118 136 163 169 153 130 127 125 99 29 340 310 348 359 296 278 272 278 272 263 263
304 262 105 55 91 122 131 127 121 127 126 125 126 130 129 127 129 134 131 128 129 133 128 132 152 161 155 148 157 158 159 173 298 306 309 305 285 276 278 280 282 288 282 274
256 189 179 171 141 129 121 130 128 129 130 134 135 136 133 135 138 139 135 136 143 147 141 135 147 158 147 154 163 167 173 209 255 259 263 260 259 269 284 311 318 322 330 330
262 218 193 136 104 114 123 132 134 133 134 135 138 139 139 140 142 143 140 147 155 151 141 141 151 150 141 142 151 160 177 250 268 269 271 267 277 302 297 313 302 304 318 322
253 219 225 176 171 156 148 144 139 138 139 139 139 139 139 141 142 146 146 151 154 154 154 153 153 150 148 157 158 162 212 259 274 276 272 263 241 260 288 245 242 249 255 269
228 214 184 165 154 142 147 144 144 146 147 140 138 140 142 143 145 151 151 156 160 164 163 159 160 166 172 178 185 184 215 262 277 280 281 279 275 265 259 249 246 252 253 253
210 178 159 165 157 150 145 143 149 153 147 141 140 143 144 147 153 156 156 162 161 166 166 169 174 171 175 184 188 204 241 251 262 271 274 280 280 276 272 266 246 240 239 243
211 186 164 156 156 155 153 153 157 151 145 143 144 148 150 153 156 157 158 162 161 172 180 185 186 181 192 201 197 220 251 266 269 281 282 280 279 281 284 284 278 262 241 237
202 183 164 164 165 165 165 165 163 155 153 148 149 152 153 154 155 157 164 170 173 184 188 189 195 203 202 198 202 223 231 247 259 270 274 274 273 278 281 278 278 270 261 256
195 185 176 175 173 174 171 169 168 161 156 154 155 155 158 160 161 166 174 177 177 188 195 200 208 223 224 212 222 247 249 229 226 248 263 278 292 295 290 286 284 281 274 272
200 186 178 175 175 175 173 173 170 160 158 160 159 160 164 166 170 171 176 177 183 194 200 207 210 230 245 246 245 269 277 274 248 257 267 277 292 294 293 291 292 291 285 267
190 180 175 174 173 172 175 174 165 159 159 160 160 161 168 170 173 176 180 191 197 201 201 203 197 229 250 259 274 262 266 269 269 268 275 280 269 277 284 288 289 287 289 290
184 178 175 172 172 172 172 171 163 158 160 161 163 165 172 174 179 185 192 201 203 203 186 184 196 224 243 241 255 267 269 271 278 284 282 281 286 292 293 294 297 303 308 307
175 174 174 172 170 170 170 170 163 160 162 166 170 173 174 177 186 189 197 202 179 177 187 186 201 221 238 244 242 262 269 269 269 275 279 281 287 293 297 302 310 313 312 308
170 174 173 167 165 165 166 169 165 164 163 171 176 174 174 182 193 195 195 196 168 161 200 205 205 215 229 252 256 261 265 271 270 269 274 277 280 285 290 294 299 302 305 307
170 170 167 163 165 164 167 168 166 167 169 176 178 178 180 187 195 200 191 181 173 172 215 222 174 179 210 247 266 273 279 285 287 286 282 281 283 284 286 290 298 309 311 310
165 165 163 161 162 166 169 169 164 166 174 180 178 176 179 189 199 204 184 162 163 172 215 185 177 195 220 249 264 272 277 279 285 290 296 299 297 296 301 305 310 311 309 313
165 161 159 161 168 172 168 166 166 173 181 181 179 177 189 197 198 189 180 166 163 180 209 192 198 209 231 258 265 269 277 288 299 307 309 305 303 306 310 309 311 314 318 323
162 163 157 168 174 175 170 171 174 177 184 181 176 176 183 184 189 182 179 175 178 197 217 211 204 212 233 250 261 270 278 273 269 276 289 301 314 323 333 335 328 326 323 326
168 161 163 180 183 185 180 176 177 178 179 175 172 174 179 181 185 189 188 189 187 199 216 231 231 224 234 244 255 264 271 280 292 301 308 318 331 334 330 327 327 327 327 338